Weather in Mikolow

Poland     50°10′22″N   18°53′50″E
temp.,
°C
wind,
m/s
gust,
m/s
humid.,
%
clouds,
%
prec.,
mm/h
press.,
hPa
HPBL,
m
15 april, thu
thu1523:00+2nnw4883100 0.0 1022673
02:00+1nnw4895100 0.2 1022572
05:00+1nw4996100 0.7 1021466
08:00+1wnw4998100 1.5 1021423
11:00+1wnw41098100 1.3 1021466
14:00+1wnw41099100 2.7 1021482
17:00+1wnw4997100 1.0 1020490
20:00+1w3798100 1.4 1020436
16 april, fri
fri1623:00+1w3598100 0.3 1020347
02:00+1w2599100 0.5 1020319
05:00+1w3699100 0.3 1019346
08:00+1w3798100 0.9 1020297
11:00+1w3798100 0.7 1020358
14:00+1w3798100 1.1 1021397
17:00+2w3798100 0.8 1021544
20:00+2w2699100 2.3 1022430
17 april, sat
sat1723:00+2wsw2599100 0.8 1021441
02:00+2w2499100 1.1 1021448
05:00+2w1499100 0.6 1021424
08:00+3w1399100 0.6 1021407
11:00+3w2398100 0.1 1021410
14:00+4wnw2498100 0.2 1021385
17:00+4w1399100 0.1 1020249
20:00+4w1399100 0.3 1020160
18 april, sun
sun1823:00+4w1299100 0.1 1020124
02:00+4wnw1199100 0.1 1019121
05:00+4ene0199100 0.0 1019100
08:00+4e2498100 0.0 1019283
11:00+8ene2475100 0.0 1018859
14:00+8e3475100 0.1 1018944
17:00+8nne3576100 0.0 1017542
20:00+8ene3883100 0.1 1018515
19 april, mon
mon1923:00+7ne4890100 0.2 1017770
02:00+6ne3794100 0.9 1016717
05:00+6ene3595100 1.1 1015595
08:00+6ene3693100 2.9 1014830
11:00+6ene3693100 1.9 10131046
14:00+7ne2491100 2.8 1013386
17:00+7ne2593100 0.1 1012428
20:00+6nne2697100 0.3 1011318